Simultaneous Nadir Overpasses (SNOs) Predictions

Prediction of SNOs between AURA and NPP Satellite Orbit:

Table of predicted SNOs for the next 14.0 days since TLE Epoch: 5/8/2021
Index Date (AURA) Time (AURA) Lat,Lon (AURA) SZA (AURA ) Date (NPP) Time (NPP) Lat,Lon (NPP) SZA (NPP ) Distance(km) Time Diff (sec)
1 05/09/2021 03:41:26 -79.42,-159.14 104.75 05/09/2021 03:40:55 -79.43,-159.09 104.74 1.18 31
2 05/09/2021 04:30:47 79.61, 9.77 74.97 05/09/2021 04:31:34 79.60, 9.69 74.95 1.69 47
3 05/11/2021 19:57:53 -79.50, -42.71 105.56 05/11/2021 19:57:50 -79.51, -42.65 105.57 1.46 3
4 05/11/2021 20:46:30 81.05, 140.08 71.72 05/11/2021 20:47:43 80.85, 140.85 71.55 26.38 73
5 05/14/2021 11:24:59 79.34, -95.59 74.05 05/14/2021 11:24:07 79.34, -95.60 74.09 0.32 52
6 05/14/2021 12:14:19 -79.62, 73.97 106.37 05/14/2021 12:14:44 -79.62, 74.07 106.41 2.23 25
7 05/17/2021 03:41:24 79.45, 21.03 73.28 05/17/2021 03:41:00 79.45, 21.07 73.29 0.95 24
8 05/17/2021 04:30:47 -79.61,-170.17 106.97 05/17/2021 04:31:41 -79.61,-170.31 106.99 2.84 54
9 05/19/2021 19:08:33 -79.22, -32.22 106.95 05/19/2021 19:07:20 -79.22, -32.24 106.89 0.55 73



Historial Predications of SNOs between AURA and NPP
